Location: Hope
(40.9110°N, 74.9680°W)
Time: 00:37:11
(UTC-04:00)

Envisat - Pass Details

Date: 26 January 2019
Orbit: 764 x 766 km, 98.1° (Epoch: 22 October)

Event Time Altitude Azimuth Distance (km) Brightness Sun altitude
Rises 06:23:38 0° 31° (NNE) 3,239 6.4 -10.1°
Reaches altitude 10° 06:26:46 10° 51° (NE) 2,307 6.0 -9.5°
Maximum altitude 06:30:02 17° 91° (E) 1,859 6.2 -8.9°
Drops below altitude 10° 06:33:17 10° 132° (SE) 2,295 6.7 -8.3°
Sets 06:36:22 0° 152° (SSE) 3,215 7.0 -7.8°
